www.pogodaiklimat.ru

Погода и климат >> Архив погоды >> Россия >> Приморский край >> Преображение


АРХИВ ПОГОДЫ в Преображении

Время (UTC), дата Ветер
(напр.,м/с)
 
Видим.   Явления Облачность Т
(С)
Тd
(С)
f
(%)
Тe
(С)
Тes
(С)
Комфортность P
(гПа)
Po
(гПа)
Тmin
(С)
Tmax
(С)
R
(мм)
R24
(мм)
S
(см)
03 13.06 Ю 3 50 км 8/0
[Cs]
+15.3 +11.4 78 +15 +28 опасность
простуды
1011.0 1006.0
06 13.06 ЮЗ 2 50 км 9/0
[Ac trans]
+14.2 +11.1 82 +14 +20 1009.9 1004.9
09 13.06 ЮЗ 1 50 км 10/0
[As trans]
+13.5 +10.9 84 +14 +15 1009.1 1004.1 +15.5
12 13.06 штиль 0 50 км 10/10 600 м
[St]
+12.6 +11.8 95 +12 +12 1010.1 1005.1
15 13.06 Ю 1 50 км 10/10 600 м
[St]
+12.3 +11.6 95 +12 +12 1009.5 1004.4
18 13.06 Ю 1 50 км 10/3 200 м
[St Cs]
+13.1 +12.4 96 +13 +13 1008.3 1003.3
21 13.06 штиль 0 50 км 10/10 600 м
[St]
+12.8 +12.5 98 +12 +12 1007.8 1002.8 +12.3
00 14.06 штиль 0 20 км 10/10 100 м
[St]
+13.2 +13.0 99 +13 +13 1007.3 1002.3
03 14.06 Ю 2 50 км 10/8 300 м
[St Cs]
+15.7 +14.4 92 +16 +19 1006.8 1001.8
06 14.06 ЮЗ 1 20 км 9/9 200 м
[St]
+14.3 +13.5 95 +15 +16 1005.9 1000.9
09 14.06 штиль 0 20 км в посл. час туман 9/9 200 м
[St]
+14.5 +14.2 98 +14 +14 1005.1 1000.2 +16.7
12 14.06 штиль 0 50 км {туман} 10/6 300 м
[St As op]
+14.0 +13.8 99 +14 +14 1006.6 1001.6
15 14.06 В 1 50 км 5/4 200 м
[Sc Ci fib]
+13.2 +12.6 96 +13 +13 1005.7 1000.7
18 14.06 В 2 500 м туман ?/? +12.3 +12.3 100 +11 +11 1005.0 1000.0
21 14.06 СВ 4
{13}
50 км в посл. час туман 10/10 300 м
[Sc]
+12.8 +11.5 92 +11 +11 1005.9 1000.9 +11.7
00 15.06 В 3
{10}
50 км {туман} 10/10 300 м
[Sc]
+12.9 +10.8 87 +11 +11 1006.1 1001.1
03 15.06 В 4 20 км слаб. ливневой дождь 10/10 300 м
[Cb cap]
+11.9 +11.3 96 +10 +10 1006.0 1001.0
06 15.06 В 3
{11}
20 км слаб. ливневой дождь 10/10 200 м
[Cb cap]
+11.9 +11.1 95 +10 +10 1005.0 1000.0
09 15.06 В 2 10 км ливневой дождь 10/10 300 м
[Cb cap]
+11.4 +10.5 94 +10 +10 1004.7 999.7 +14.7 9
12 15.06 В 3 10 км слаб. ливневой дождь 10/10 200 м
[Cb cap]
+10.8 +10.1 95 +9 +9 1005.6 1000.5
15 15.06 В 3 50 км в посл. час ливневой дождь 10/4 300 м
[St Ac und]
+10.9 +9.5 91 +9 +9 1004.5 999.5
18 15.06 СВ 3
{12}
50 км {ливн. осадки} 10/0
[Ac und]
+13.6 +9.4 76 +12 +12 1003.4 998.4
21 15.06 штиль 0 20 км слаб. ливневой дождь 10/10 600 м
[Cb cap]
+10.6 +10.0 96 +10 +10 1004.0 999.0 +10.6 5
00 16.06 ЮВ 1 50 км {ливн. осадки} 10/10 600 м
[Cb cap]
+11.4 +9.9 90 +11 +11 1004.4 999.3 +10.0
03 16.06 ЮЗ 1 50 км 10/0
[As trans]
+12.4 +9.6 83 +12 +22 1004.3 999.2
06 16.06 ЮВ 3 50 км 10/10 600 м
[Sc]
+10.7 +7.5 81 +9 +9 1005.2 1000.1
09 16.06 ЮВ 2 50 км 10/10 600 м
[Sc]
+10.1 +6.8 80 +9 +9 1007.1 1002.0 +12.7 0.0
12 16.06 штиль 0 50 км 9/9 600 м
[Sc]
+9.5 +6.4 81 +9 +9 1009.1 1004.0
15 16.06 штиль 0 50 км 9/9 600 м
[Sc]
+9.6 +6.9 83 +9 +9 1009.5 1004.4
18 16.06 С 1 50 км 9/9 600 м
[Sc]
+10.1 +7.2 82 +10 +10 1009.3 1004.3
21 16.06 З 1 50 км 3/0
[Cs]
+9.5 +7.9 90 +9 +10 1009.9 1004.8 +8.9
00 17.06 Ю 3 50 км 1/0
[Ci fib]
+12.3 +9.1 81 +11 +21 опасность
простуды
1010.0 1005.0
03 17.06 Ю 3 50 км 1/0
[Ci fib]
+13.0 +9.9 81 +12 +28 опасность
простуды
1008.4 1003.4
06 17.06 Ю 3 50 км 3/1 600 м
[Cu hum Ci fib]
+14.1 +9.2 72 +13 +22 1008.0 1003.0
09 17.06 Ю 1 50 км 1/0
[Ci sp]
+11.8 +9.2 84 +12 +14 1007.9 1002.8 +16.8
12 17.06 СВ 1 50 км 8/0
[Ac trans]
+12.1 +10.4 89 +12 +12 1008.6 1003.6
15 17.06 штиль 0 50 км 9/9 600 м
[Sc]
+12.0 +9.4 84 +11 +11 1008.9 1003.9
18 17.06 С 2 50 км 9/5 600 м
[Sc Ac trans]
+11.9 +9.8 87 +11 +11 1008.6 1003.6
21 17.06 С 1 50 км 5/0
[Ac trans Ci sp]
+12.7 +9.5 81 +13 +14 1009.1 1004.1 +10.7
00 18.06 ЮВ 1 20 км слаб. ливневой дождь 10/10 600 м
[Cb cap]
+11.7 +9.8 88 +12 +12 1009.5 1004.4
03 18.06 Ю 1 500 м туман {ливн. осадки} ?/? +12.6 +12.6 100 +12 +12 1008.4 1003.4
06 18.06 Ю 1 500 м туман {ливн. осадки} ?/? +12.4 +12.4 100 +12 +12 1007.1 1002.1
09 18.06 Ю 1 500 м туман ?/? +12.6 +12.6 100 +12 +12 1006.5 1001.5 +14.6 3
12 18.06 Ю 1 500 м туман ?/? +12.3 +12.3 100 +12 +12 1007.7 1002.7
15 18.06 штиль 0 500 м туман ?/? +11.5 +11.5 100 +11 +11 1007.0 1002.0
18 18.06 штиль 0 500 м туман ?/? +11.0 +11.0 100 +10 +10 1005.8 1000.7
21 18.06 С 2 20 км в посл. час туман 6/6 200 м
[St]
+11.7 +11.6 99 +10 +11 1005.8 1000.7 +10.4
00 19.06 Ю 2 50 км {туман} 3/0
[Cs]
+15.3 +13.6 90 +15 +26 опасность
простуды
1005.2 1000.2
03 19.06 Ю 2 50 км 3/3 600 м
[Cu hum]
+14.6 +13.4 93 +14 +28 опасность
простуды
1004.7 999.7
06 19.06 Ю 1 500 м туман ясно +12.6 +12.2 97 +12 +27 опасность
простуды
1004.0 999.0
09 19.06 штиль 0 500 м туман ?/? +12.7 +12.7 100 +12 +12 1004.0 999.0 +16.5
12 19.06 штиль 0 50 км {туман} 10/10 200 м
[St]
+13.4 +13.0 97 +13 +13 1004.8 999.8
15 19.06 З 1 50 км {морось} 10/10 200 м
[St]
+13.4 +13.2 99 +13 +13 1004.7 999.7
18 19.06 ЮВ 1 50 км {морось} 10/10 200 м
[St]
+12.6 +12.4 99 +12 +12 1004.0 999.0
21 19.06 В 1 50 км в посл. час морось {дождь} 9/9 600 м
[Sc]
+13.2 +13.1 99 +13 +13 1004.5 999.5 +12.2 0.5
00 20.06 В 2 50 км {дождь, морось} 6/5 300 м
[Cb cap Ci fib]
+18.0 +14.2 78 +19 +24 1005.5 1000.6

 

Местоположение метеостанции Преображение (Приморский край, Россия): широта 42.90 долгота 133.90 высота над уровнем моря 43 м.

В архиве по умолчанию представлена погода в Преображении за последнюю неделю. Архивные данные за месяц целиком и за предыдущие месяцы, начиная с января 2011 года, Вы можете получить, выбрав интересующий диапазон дат из раскрывающегося списка и нажав кнопку "Ввод!".


*Определитесь, кто Вы:
робот инопланетянин человек

Внимание! Время в таблицах - всемирное. Для получения местного времени необходимо прибавить поправку, которая равна 10 ч.

Смотрите также архив погоды в соседних городах и на ближайших метеорологических станциях:

Погода в Лазо (Приморский край, Россия) (56 км)
Погода в Лучегорске (Приморский край, Россия) (75 км)
Погода в Партизанске (Приморский край, Россия) (78 км)
Погода в Находке (Приморский край, Россия) (90 км)
Погода в Многоудобном (Приморский край, Россия) (132 км)
Погода в Чугуевке (Приморский край, Россия) (139 км)
Погода в Анучино (Приморский край, Россия) (139 км)
Погода в Ольге (Приморский край, Россия) (148 км)
Погода в Дальнегорске (Приморский край, Россия) (153 км)
Погода на Мысе Назимова (Приморский край, Россия) (164 км)

Пояснения к столбцам:

Ветер - указаны скорость ветра в м/с - средняя за 10 мин, порывы в срок и между сроками (в фигурных скобках) и направление, откуда дует ветер: С - северный, СВ - северо-восточный, В - восточный, ЮВ - юго-восточный, Ю - южный, ЮЗ - юго-западный, З - западный, СЗ - северо-западный.
Видимость - горизонтальная дальность видимости в метрах или километрах. При видимости от 1 до 10 км при отсутствии осадков обычно наблюдается дымка, при ухудшении видимости до 1 км и менее - туман. В сухую погоду видимость может ухудшаться дымом, пылью или мглою.
Явления - указаны атмосферные явления, наблюдавшиеся в срок или в последний час перед сроком; фигурными скобками обозначены явления, наблюдавшиеся между сроками (за 1-3 часа до срока); квадратными скобками обозначены град или гололедные отложения с указанием их диаметра в мм.
Облачность - указаны через наклонную черту общая и нижняя облачность в баллах и высота нижней границы облаков в метрах; квадратными скобками обозначены формы облаков: Ci - перистые, Cs - перисто-слоистые, Cc - перисто-кучевые, Ac - высококучевые, As - высокослоистые, Sc - слоисто-кучевые, Ns - слоисто-дождевые, Cu - кучевые, Cb - кучево-дождевые. Подробнее классификацию облаков см. в Атласе облаков (PDF).
T - Температура воздуха - температура, измеренная на высоте 2 м над землей.
Td - Температура точки росы - температура, при понижении до которой содержащийся в воздухе водяной пар достигнет насыщения.
f - Относительная влажность воздуха - влажноcть воздуха, измеренная на высоте 2 м над землей.
Te - Эффективная температура - температура, которую ощущает одетый по сезону человек в тени. Характеристика душности погоды. При расчете учитывается влияние влажности воздуха и скорости ветра на теплоощущения человека.
Tes - Эффективная температура на солнце - температура, которую ощущает человек, с поправкой на солнечный нагрев. Характеристика знойности погоды. Зависит от высоты солнца над горизонтом, облачности и скорости ветра. Ночью, в пасмурную погоду, а также при ветре 12 м/с и более поправка равна нулю.
P - Атмосферное давление - приведенное к уровню моря атмосферное давление.
Po - Атмосферное давление - измеренное на уровне метеостанции атмосферное давление.
Tmin - Минимальная температура - минимум температуры воздуха на высоте 2 м над землей.
Tmax - Максимальная температура - максимум температуры воздуха на высоте 2 м над землей.
R - Количество осадков - Количество выпавших осадков за период времени, мм. При наведении курсора мыши на число - период времени, за который выпало указанное количество осадков.
R24 - Количество осадков - Количество выпавших осадков за 24 часа, мм.
S - Снежный покров - Высота снежного покрова, см. При наведении курсора мыши на число - состояние снежного покрова и степень покрытия местности в баллах.